Weather History for KHND - March, 2013

Change the Weather History Date:

Friday, March 22, 2013

  Actual Average (KLAS) Record (KLAS)
Temperature  
Mean Temperature 62 °F 61 °F  
Max Temperature 73 °F 72 °F 91 °F (2004)
Min Temperature 50 °F 50 °F 28 °F (1948)
Degree Days  
Heating Degree Days 4 5  
Month to date heating degree days 149  
Since 1 July heating degree days 1840  
Cooling Degree Days 0 1  
Month to date cooling degree days 14  
Year to date cooling degree days 15  
Growing Degree Days 12 (Base 50)    
Moisture  
Dew Point 1 °F    
Average Humidity 10    
Maximum Humidity 21    
Minimum Humidity 4    
Precipitation  
Precipitation 0.00 in 0.01 in 0.69 in (1954)
Month to date precipitation 0.36  
Year to date precipitation 1.66  
Snow  
Snow 0.00 in 0.00 in T in (1992)
Month to date snowfall 0.0  
Since 1 July snowfall 0.3  
Snow Depth -    
Sea Level Pressure  
Sea Level Pressure 29.79 in    
Wind  
Wind Speed 8 mph (NNE)    
Max Wind Speed 22 mph    
Max Gust Speed 29 mph    
Visibility 10 miles    
Events      
T = Trace of Precipitation, MM = Missing Value Source: NWS Daily Summary

Daily Weather History Graph

Daily Weather History Graph

Search for Another Location

Airport or City:

Trip Planner

Search our weather history database for the weather conditions in past years. The results will help you decide how hot, cold, wet, or windy it might be!

Date:

Astronomy

Mar. 22, 2013 Rise Set
Actual Time 6:40 AM PDT 6:54 PM PDT
Civil Twilight 6:15 AM PDT 7:19 PM PDT
Nautical Twilight 5:45 AM PDT 7:49 PM PDT
Astronomical Twilight 5:14 AM PDT 8:20 PM PDT
Moon 2:33 PM PDT (3/22) 3:35 AM PDT (3/22)
Length of Visible Light 13h 04m
Length of Day
12h 13m
Waxing Gibbous, 78% of the Moon is Illuminated
Mar 22
Waxing Gibbous
Mar 27
Full
Apr 2
Last Quarter
Apr 10
New
Apr 18
First Quarter

Hourly Weather History & Observations

Time (PDT) Temp. Dew Point Humidity Pressure Visibility Wind Dir Wind Speed Gust Speed Precip Events Conditions
12:56 AM 54.9 °F 15.1 °F 21% 29.72 in 10.0 mi SSE 8.1 mph - N/A   Clear
1:56 AM 56.8 °F 11.1 °F 16% 29.73 in 10.0 mi NNE 3.5 mph - N/A   Clear
2:56 AM 57.9 °F 10.0 °F 15% 29.73 in 10.0 mi ENE 9.2 mph - N/A   Clear
3:56 AM 56.8 °F 14.0 °F 19% 29.73 in 10.0 mi ENE 5.8 mph - N/A   Clear
4:56 AM 50.0 °F 11.1 °F 21% 29.77 in 10.0 mi South 9.2 mph - N/A   Clear
5:56 AM 56.8 °F 14.0 °F 19% 29.78 in 10.0 mi NE 12.7 mph - N/A   Clear
6:56 AM 55.9 °F 13.1 °F 18% 29.82 in 10.0 mi NNE 13.8 mph - N/A   Partly Cloudy
7:56 AM 56.8 °F 12.0 °F 17% 29.83 in 10.0 mi NE 11.5 mph - N/A   Clear
8:56 AM 61.0 °F 11.1 °F 14% 29.84 in 10.0 mi NE 5.8 mph - N/A   Clear
9:56 AM 63.0 °F 8.1 °F 11% 29.84 in 10.0 mi NNE 9.2 mph - N/A   Clear
10:56 AM 65.8 °F 4.1 °F 9% 29.83 in 10.0 mi East 5.8 mph - N/A   Clear
11:56 AM 66.9 °F 3.0 °F 8% 29.82 in 10.0 mi Calm Calm - N/A   Clear
12:56 PM 70.0 °F 6.1 °F 8% 29.80 in 10.0 mi Variable 5.8 mph - N/A   Clear
1:56 PM 72.9 °F -0.9 °F 5% 29.77 in 10.0 mi North 8.1 mph - N/A   Clear
2:56 PM 72.0 °F -2.9 °F 5% 29.75 in 10.0 mi NNW 5.8 mph - N/A   Clear
3:56 PM 72.9 °F -8.0 °F 4% 29.75 in 10.0 mi NNW 10.4 mph 17.3 mph N/A   Clear
4:56 PM 73.4 °F -9.4 °F 4% 29.77 in 10.0 mi North 3.5 mph - N/A   Clear
5:56 PM 72.0 °F -8.9 °F 4% 29.73 in 10.0 mi NW 5.8 mph - N/A   Clear
6:56 PM 68.9 °F -10.8 °F 4% 29.74 in 10.0 mi Calm Calm - N/A   Clear
7:56 PM 66.9 °F -11.9 °F 4% 29.78 in 10.0 mi NW 10.4 mph - N/A   Clear
9:56 PM 61.0 °F -13.9 °F 4% 29.83 in 10.0 mi Calm Calm - N/A   Clear
10:56 PM 61.0 °F -17.0 °F 4% 29.85 in 10.0 mi North 10.4 mph - N/A   Clear
11:56 PM 59.9 °F -17.9 °F 4% 29.86 in 10.0 mi NNW 21.9 mph 28.8 mph N/A   Clear